Location: Wojciech Piskorz
(50.3083°N, 18.6764°E)
Time: 14:03:55
(UTC+02:00)

Envisat - Visible Passes

Search period start: 12 August 2022 00:00
Search period end: 22 August 2022 00:00
Orbit: 763 x 765 km, 98.2° (Epoch: 11 August)

Date Brightness Start Highest point End Pass type
(mag) Time Alt. Az. Time Alt. Az. Time Alt. Az.
13 Aug 5.1 04:22:34 10° NE 04:26:52 26° E 04:31:06 10° SSE visible
14 Aug 5.8 03:47:02 10° ENE 03:49:26 13° E 03:51:51 10° ESE visible
15 Aug 4.3 04:47:21 10° NNE 04:52:11 42° E 04:56:59 10° SSE visible
16 Aug 5.4 04:11:02 10° NE 04:14:55 22° E 04:18:47 10° SE visible
17 Aug 6.0 03:36:38 10° ENE 03:37:26 10° E 03:38:16 10° E visible
18 Aug 4.7 04:35:40 10° NNE 04:40:18 34° E 04:44:54 10° SSE visible
19 Aug 5.6 03:59:36 10° NE 04:02:58 17° E 04:06:19 10° SE visible
20 Aug 3.8 05:00:34 10° NNE 05:05:35 55° E 05:10:33 10° S visible
21 Aug 5.0 04:24:01 10° NE 04:28:23 28° E 04:32:43 10° SSE visible
